Location: Newark
(45.6439°N, 0.3808°W)
Time: 18:41:14
(UTC+00:00)

Envisat - Visible Passes

Search period start: 22 November 2019 00:00
Search period end: 02 December 2019 00:00
Orbit: 764 x 766 km, 98.1° (Epoch: 22 November)

Date Brightness Start Highest point End Pass type
(mag) Time Alt. Az. Time Alt. Az. Time Alt. Az.
22 Nov 5.8 05:50:54 10° NE 05:54:41 21° E 05:58:26 10° SE visible
22 Nov 3.6 17:07:25 10° SE 17:11:58 34° ENE 17:16:31 10° N visible
22 Nov 4.7 18:46:26 10° SSW 18:50:58 33° W 18:55:33 10° NNW visible
23 Nov 3.3 18:08:59 10° S 18:14:03 70° WSW 18:19:08 10° NNW visible
24 Nov 4.9 06:15:46 10° NNE 06:20:24 34° E 06:25:00 10° SSE visible
24 Nov 3.0 17:32:21 10° SSE 17:37:19 57° ENE 17:42:18 10° N visible
24 Nov 5.5 19:13:04 10° SW 19:16:42 20° W 19:20:21 10° NW visible
25 Nov 6.0 05:40:06 10° NE 05:43:17 17° E 05:46:27 10° SE visible
25 Nov 3.8 16:56:30 10° ESE 17:00:46 28° ENE 17:05:04 10° N visible
25 Nov 4.3 18:34:52 10° SSW 18:39:37 41° W 18:44:26 10° NNW visible
26 Nov 3.8 06:40:59 10° NNE 06:46:01 59° E 06:51:01 10° S visible
26 Nov 3.0 17:57:40 10° SSE 18:02:45 86° WSW 18:07:52 10° NNW visible
26 Nov 6.2 19:41:04 10° WSW 19:42:32 11° W 19:44:00 10° WNW visible
27 Nov 5.3 06:04:42 10° NE 06:09:03 28° E 06:13:21 10° SSE visible
27 Nov 3.2 17:21:16 10° SE 17:26:05 46° ENE 17:30:56 10° N visible
27 Nov 5.2 19:01:13 10° SSW 19:05:19 24° W 19:09:26 10° NW visible
28 Nov 6.2 05:29:31 10° ENE 05:31:52 13° E 05:34:12 10° ESE visible
28 Nov 4.1 16:45:41 10° ESE 16:49:37 23° ENE 16:53:33 10° NNE visible
28 Nov 3.8 18:23:22 10° S 18:28:18 51° W 18:33:16 10° NNW visible
29 Nov 4.2 06:29:47 10° NNE 06:34:42 47° E 06:39:35 10° S visible
29 Nov 2.9 17:46:26 10° SSE 17:51:29 77° ENE 17:56:35 10° N visible
29 Nov 5.9 19:28:25 10° WSW 19:31:06 14° W 19:33:48 10° NW visible
30 Nov 5.6 05:53:42 10° NE 05:57:41 22° E 06:01:36 10° SE visible
30 Nov 3.5 17:10:15 10° SE 17:14:53 37° ENE 17:19:32 10° N visible
30 Nov 4.9 18:49:31 10° SSW 18:53:56 30° W 18:58:24 10° NNW visible
01 Dec 6.5 05:20:13 10° E 05:20:25 10° E 05:20:38 10° E visible
01 Dec 3.4 18:11:58 10° S 18:16:59 64° WSW 18:22:04 10° NNW visible
